| time (UTC) | temp F | wind direction | speed knots | gust knots | rain 1hr in | rain 24hr in | rain mn in | humidity % | barometer mb |
| 20260510213037 | 41 | 0.0 | 0.0 | 0.00 | 0.01 | 0.01 | 97 | 1032.6 | |
| 20260510211540 | 41 | 0.0 | 0.0 | 0.00 | 0.01 | 0.01 | 97 | 1032.4 | |
| 20260510210036 | 41 | 0.0 | 0.0 | 0.00 | 0.01 | 0.01 | 97 | 1032.4 | |
| 20260510204533 | 41 | 0.0 | 0.0 | 0.00 | 0.01 | 0.01 | 97 | 1032.3 | |
| 20260510203027 | 41 | 0.0 | 0.0 | 0.00 | 0.01 | 0.01 | 97 | 1032.0 | |
| 20260510201525 | 40 | 0.0 | 0.0 | 0.00 | 0.01 | 0.01 | 97 | 1031.9 | |
| 20260510200024 | 41 | 0.0 | 0.0 | 0.00 | 0.01 | 0.01 | 97 | 1031.9 | |
| 20260510194532 | 41 | 0.0 | 0.0 | 0.00 | 0.01 | 0.01 | 97 | 1031.7 | |
| 20260510193021 | 41 | 0.0 | 0.0 | 0.00 | 0.01 | 0.01 | 97 | 1031.6 | |
| 20260510191519 | 41 | 0.0 | 0.0 | 0.00 | 0.01 | 0.01 | 97 | 1031.5 | |
| 20260510190034 | 41 | 0.0 | 0.0 | 0.00 | 0.01 | 0.01 | 97 | 1031.4 | |
| 20260510184514 | 42 | 0.0 | 0.0 | 0.00 | 0.01 | 0.01 | 97 | 1031.2 | |
| 20260510183013 | 42 | 0.0 | 0.0 | 0.00 | 0.01 | 0.01 | 97 | 1031.2 | |
| 20260510181512 | 42 | 0.0 | 0.0 | 0.00 | 0.01 | 0.01 | 97 | 1031.1 | |
| 20260510180015 | 42 | 0.0 | 0.0 | 0.00 | 0.01 | 0.01 | 97 | 1031.0 | |
| 20260510174510 | 42 | 0.0 | 0.0 | 0.00 | 0.01 | 0.01 | 97 | 1030.9 | |
| 20260510173008 | 42 | 0.0 | 0.0 | 0.00 | 0.01 | 0.01 | 97 | 1030.9 | |
| 20260510171513 | 43 | 0.0 | 0.0 | 0.00 | 0.01 | 0.01 | 97 | 1030.9 | |
| 20260510170005 | 43 | 0.0 | 0.0 | 0.00 | 0.01 | 0.01 | 97 | 1031.0 | |
| 20260510164506 | 44 | 0.0 | 0.0 | 0.00 | 0.01 | 0.01 | 97 | 1031.0 | |
| 20260510163001 | 44 | 0.0 | 0.0 | 0.00 | 0.01 | 0.01 | 97 | 1031.1 | |
| 20260510161600 | 44 | 0.0 | 0.0 | 0.00 | 0.01 | 0.01 | 97 | 1031.2 | |
| 20260510160101 | 44 | 0.0 | 0.0 | 0.00 | 0.01 | 0.01 | 96 | 1031.2 | |
| 20260510154556 | 44 | 0.0 | 0.0 | 0.00 | 0.01 | 0.01 | 96 | 1031.1 | |
| 20260510153103 | 44 | 0.0 | 0.0 | 0.00 | 0.01 | 0.01 | 96 | 1031.1 | |
| 20260510151623 | 45 | 0.0 | 0.0 | 0.00 | 0.01 | 0.01 | 96 | 1031.2 | |
| 20260510150057 | 46 | 0.0 | 0.0 | 0.01 | 0.01 | 0.01 | 96 | 1031.2 | |
| 20260510144556 | 47 | 0.0 | 0.0 | 0.01 | 0.01 | 0.01 | 96 | 1031.2 | |
| 20260510143056 | 48 | 0.0 | 0.0 | 0.01 | 0.01 | 0.01 | 96 | 1031.2 | |
| 20260510141540 | 49 | 0.0 | 0.0 | 0.01 | 0.01 | 0.01 | 96 | 1031.2 | |
| 20260510140037 | 49 | 0.0 | 0.0 | 0.00 | 0.00 | 0.00 | 97 | 1031.2 | |
| 20260510134539 | 49 | 0.0 | 0.0 | 0.00 | 0.00 | 0.00 | 96 | 1031.2 | |
| 20260510133035 | 50 | 0.0 | 0.0 | 0.00 | 0.00 | 0.00 | 96 | 1031.2 | |
| 20260510131535 | 50 | 0.0 | 0.0 | 0.00 | 0.00 | 0.00 | 96 | 1031.3 | |
| 20260510130036 | 50 | 0.0 | 0.0 | 0.00 | 0.00 | 0.00 | 96 | 1031.3 | |
| 20260510124535 | 49 | 0.0 | 0.0 | 0.00 | 0.00 | 0.00 | 96 | 1031.4 | |
| 20260510123035 | 50 | 0.0 | 0.0 | 0.00 | 0.00 | 0.00 | 96 | 1031.4 | |
| 20260510121533 | 49 | 0.0 | 0.0 | 0.00 | 0.00 | 0.00 | 95 | 1031.4 | |
| 20260510120035 | 50 | 0.0 | 0.0 | 0.00 | 0.00 | 0.00 | 95 | 1031.4 | |
| 20260510114530 | 50 | 0.0 | 0.0 | 0.00 | 0.00 | 0.00 | 94 | 1031.4 | |
| 20260510113028 | 50 | 0.0 | 0.0 | 0.00 | 0.00 | 0.00 | 94 | 1031.3 | |
| 20260510111527 | 51 | 0.0 | 0.0 | 0.00 | 0.00 | 0.00 | 93 | 1031.1 | |
| 20260510110028 | 51 | 0.0 | 0.0 | 0.00 | 0.00 | 0.00 | 92 | 1031.0 | |
| 20260510104523 | 53 | 0.0 | 0.0 | 0.00 | 0.00 | 0.00 | 92 | 1031.0 | |
| 20260510103026 | 53 | 0.0 | 0.0 | 0.00 | 0.00 | 0.00 | 91 | 1030.9 | |
| 20260510101521 | 54 | 0.0 | 0.0 | 0.00 | 0.00 | 0.00 | 90 | 1030.7 | |
| 20260510100031 | 55 | 0.0 | 1.7 | 0.00 | 0.00 | 0.00 | 90 | 1030.7 | |
| 20260510094526 | 56 | 0.0 | 1.7 | 0.00 | 0.00 | 0.00 | 89 | 1030.8 | |
| 20260510093020 | 56 | 0.0 | 0.9 | 0.00 | 0.00 | 0.00 | 90 | 1030.7 | |
| 20260510091524 | 56 | 0.0 | 0.9 | 0.00 | 0.00 | 0.00 | 90 | 1030.6 | |
| 20260510090025 | 56 | 0.0 | 0.0 | 0.00 | 0.00 | 0.00 | 89 | 1030.5 | |
| 20260510084519 | 56 | 0.0 | 0.0 | 0.00 | 0.00 | 0.00 | 89 | 1030.4 | |
| 20260510083023 | 56 | 0.0 | 0.9 | 0.00 | 0.00 | 0.00 | 89 | 1030.4 | |
| 20260510081518 | 56 | 0.0 | 0.9 | 0.00 | 0.00 | 0.00 | 88 | 1030.2 | |
| 20260510080026 | 57 | 0.0 | 0.9 | 0.00 | 0.00 | 0.00 | 88 | 1030.0 | |
| 20260510074517 | 57 | 0.0 | 0.9 | 0.00 | 0.00 | 0.00 | 88 | 1029.9 | |
| 20260510073016 | 57 | 0.0 | 0.9 | 0.00 | 0.00 | 0.00 | 88 | 1029.7 | |
| 20260510071521 | 57 | 0.0 | 1.7 | 0.00 | 0.00 | 0.00 | 87 | 1029.7 | |
| 20260510070016 | 58 | 0.0 | 1.7 | 0.00 | 0.00 | 0.00 | 86 | 1029.7 | |
| 20260510064519 | 58 | 0.0 | 2.6 | 0.00 | 0.00 | 0.00 | 85 | 1029.6 | |
| 20260510063014 | 58 | 0.0 | 3.5 | 0.00 | 0.00 | 0.00 | 85 | 1029.5 | |
| 20260510061513 | 59 | 0.9 | 4.3 | 0.00 | 0.00 | 0.00 | 83 | 1029.5 | |
| 20260510060013 | 59 | 0.0 | 2.6 | 0.00 | 0.00 | 0.00 | 83 | 1029.5 | |
| 20260510054512 | 59 | 0.0 | 3.5 | 0.00 | 0.00 | 0.00 | 83 | 1029.3 | |
| 20260510053011 | 59 | 0.9 | 3.5 | 0.00 | 0.00 | 0.00 | 84 | 1029.3 | |
| 20260510051511 | 60 | 0.0 | 3.5 | 0.00 | 0.00 | 0.00 | 80 | 1029.3 | |
| 20260510050014 | 60 | 0.0 | 3.5 | 0.00 | 0.00 | 0.00 | 78 | 1029.1 | |
| 20260510044511 | 61 | 0.9 | 4.3 | 0.00 | 0.00 | 0.00 | 76 | 1029.0 | |
| 20260510043009 | 61 | 0.0 | 0.9 | 0.00 | 0.00 | 0.00 | 73 | 1029.1 | |
| 20260510041509 | 61 | 0.0 | 1.7 | 0.00 | 0.00 | 0.00 | 71 | 1029.1 | |
| 20260510040010 | 61 | 0.0 | 1.7 | 0.00 | 0.00 | 0.00 | 72 | 1029.1 | |
| 20260510034504 | 60 | 0.0 | 1.7 | 0.00 | 0.00 | 0.00 | 75 | 1029.2 | |
| 20260510033004 | 60 | 0.0 | 1.7 | 0.00 | 0.00 | 0.00 | 74 | 1029.3 | |
| 20260510031503 | 60 | 0.0 | 2.6 | 0.00 | 0.00 | 0.00 | 73 | 1029.4 | |
| 20260510030003 | 60 | 0.0 | 2.6 | 0.00 | 0.00 | 0.00 | 74 | 1029.5 | |
| 20260510024502 | 60 | 0.0 | 3.5 | 0.00 | 0.00 | 0.00 | 74 | 1029.7 | |
| 20260510023002 | 60 | 0.0 | 5.2 | 0.00 | 0.00 | 0.00 | 76 | 1029.9 | |
| 20260510021601 | 61 | 0.0 | 2.6 | 0.00 | 0.00 | 0.00 | 74 | 1030.1 | |
| 20260510020059 | 61 | 0.0 | 2.6 | 0.00 | 0.00 | 0.00 | 73 | 1030.3 | |
| 20260510014557 | 60 | 0.0 | 2.6 | 0.00 | 0.00 | 0.00 | 72 | 1030.5 | |
| 20260510013056 | 60 | 0.9 | 3.5 | 0.00 | 0.00 | 0.00 | 74 | 1030.6 | |
| 20260510011558 | 60 | 0.0 | 2.6 | 0.00 | 0.00 | 0.00 | 74 | 1030.6 | |
| 20260510010058 | 60 | 0.0 | 1.7 | 0.00 | 0.00 | 0.00 | 75 | 1030.7 | |
| 20260510004548 | 59 | 0.0 | 0.9 | 0.00 | 0.00 | 0.00 | 75 | 1030.7 | |
| 20260510003047 | 58 | 0.9 | 3.5 | 0.00 | 0.00 | 0.00 | 83 | 1030.8 | |
| 20260510001545 | 57 | 0.0 | 0.0 | 0.00 | 0.00 | 0.00 | 89 | 1030.9 | |
| 20260510000058 | 56 | 0.0 | 0.9 | 0.00 | 0.00 | 0.00 | 94 | 1030.9 | |
| 20260509234548 | 55 | 0.0 | 1.7 | 0.00 | 0.00 | 0.00 | 96 | 1030.8 | |
| 20260509233035 | 54 | 0.0 | 1.7 | 0.00 | 0.00 | 0.00 | 97 | 1030.8 | |
| 20260509231533 | 54 | 0.9 | 1.7 | 0.00 | 0.00 | 0.00 | 97 | 1030.8 | |
| 20260509230036 | 53 | 0.0 | 1.7 | 0.00 | 0.00 | 0.00 | 97 | 1030.9 | |
| 20260509224530 | 53 | 0.0 | 0.9 | 0.00 | 0.00 | 0.00 | 97 | 1030.7 | |
| 20260509223030 | 52 | 0.0 | 0.9 | 0.00 | 0.00 | 0.00 | 97 | 1030.6 | |
| 20260509221528 | 52 | 0.0 | 0.0 | 0.00 | 0.00 | 0.00 | 97 | 1030.6 | |
| 20260509220027 | 52 | 0.0 | 0.9 | 0.00 | 0.00 | 0.00 | 97 | 1030.3 | |
| 20260509214625 | 52 | 0.0 | 0.0 | 0.00 | 0.00 | 0.00 | 97 | 1030.1 |